Regional Weather Roundup
Issued by NWS Burlington, VT

Current Version | Previous Version | Graphics & Text | Print | Product List | Glossary Off
Versions: 1 2 3 4 5 6 7 8 9 10 11 12 13 14 15 16 17 18 19 20 21 22 23 24 25 26 27 28 29 30 31 32 33 34 35 36 37 38 39 40 41 42 43 44 45 46 47 48 49 50

000
ASUS41 KBTV 190410
RWRBTV
VERMONT REGIONAL WEATHER ROUNDUP
NATIONAL WEATHER SERVICE BURLINGTON VT
1100 PM EST SAT NOV 18 2017

NOTE: "FAIR" INDICATES FEW OR NO CLOUDS BELOW 12,000 FEET WITH NO
SIGNIFICANT WEATHER AND/OR OBSTRUCTIONS TO VISIBILITY.

* THESE REPORTS ARE NOT UNDER NWS QUALITY CONTROL AND/OR DO NOT
  REPORT WEATHER SUCH AS PRECIPITATION AND FOG.

VTZ001>019-190500-
_____VERMONT_____


CITY           SKY/WX    TMP DP  RH WIND       PRES   REMARKS
BURLINGTON     LGT RAIN  37  35  92 CALM      29.34F
MONTPELIER     CLOUDY    36  36 100 SE6       29.42F WCI  31
LYNDONVILLE*   LGT RAIN  33  32  96 SE3       29.42F
MIDDLEBURY*    LGT RAIN  39  37  93 S7        29.36F
RUTLAND*       LGT RAIN  40  37  89 SE13G18   29.37F
SPRINGFIELD    LGT RAIN  33  33 100 CALM      29.45F FOG
HIGHGATE*      MIX PCPN  35  34  97 SE6       29.33F WCI  30
NEWPORT*       DRIZZLE   34  33  96 S9        29.39F WCI  26
BENNINGTON     LGT RAIN  45  40  82 VRB5      29.37F
SUTTON*          N/A     32 N/A N/A MISG        N/A

_____LAKE CHAMPLAIN_____


CITY           SKY/WX    TMP DP  RH WIND       PRES   REMARKS
BURTON ISLAND*   N/A     39  37  93 S12         N/A  WCI  32
DIAMOND ISL*     N/A     39  37  93 S10         N/A

$$

NYZ007-026>031-035-052-083-087-190500-
_____NORTHERN NEW YORK_____


CITY           SKY/WX    TMP DP  RH WIND       PRES   REMARKS
PLATTSBURGH    CLOUDY    40  37  89 SE15      29.30F WCI  32
SARANAC LAKE   LGT RAIN  35  35 100 CALM      29.24F FOG
MASSENA        CLOUDY    33  33 100 NE9       29.28F WCI  25
OGDENSBURG*    DRIZZLE   35  34  96 E7        29.23F WCI  29
POTSDAM*       CLOUDY    34  34 100 E5        29.22F WCI  30
WATERTOWN      CLOUDY    45  42  89 VRB5      29.17F
FT DRUM        CLOUDY    41  37  87 SE15      29.17F
ALBANY         LGT RAIN  45  40  82 S15G28    29.36F
GLENS FALLS    LGT RAIN  36  36 100 CALM      29.36F FOG

$$
NHZ002-005-011-190500-
_____NEW HAMPSHIRE_____


CITY           SKY/WX    TMP DP  RH WIND       PRES   REMARKS
LEBANON        LGT RAIN  36  35  96 CALM      29.42F FOG
KEENE          CLOUDY    36  34  92 CALM      29.46F FOG
MT WASHINGTON  FRZ RAIN  27  27 100 S38         N/A  VSB 0   WCI   9
PLYMOUTH       MIX PCPN  32  32  99 CALM      29.50F
WHITEFIELD     LGT RAIN  33  33 100 CALM      29.43F FOG

$$

_____REGIONAL QUEBEC LOCATIONS_____


CITY           SKY/WX    TMP DP  RH WIND       PRES   REMARKS
MONTREAL       FRZ DRZL  32  28  86 NE6       29.32F WCI  26
QUEBEC CITY    CLOUDY    32  23  69 E18       29.48F WCI  20
SHERBROOKE     LGT RAIN  32  30  93 E6        29.41F WCI  26

_____REGIONAL ONTARIO LOCATIONS_____


CITY           SKY/WX    TMP DP  RH WIND       PRES   REMARKS
OTTAWA         FRZ RAIN  30  28  93 NE10      29.27F FOG     WCI  21

______KEY______
VSB  - VISIBILITY IN MILES
WCI  - WIND CHILL INDEX
HX   - HEAT INDEX
$$
NNNN



USA.gov is the U.S. government's official web portal to all federal, state and local government web resources and services.